Wind_Speed
10 11 10 10 11 11 14 14 14 15 15 16 17 17 16 15 13 13 12 11 10 10 10 10 11 11 10 10 12 12 13 14 15 14 13 13 13 14 12 9 7 6 6
11 10 10 10 11 12 14 15 16 16 16 16 15 15 14 13 13 12 9 8 7 7 6 7 9 10 10 10 11 12 13 15 15 13 13 13 12 12 10 8 6 6 6
10 11 12 10 11 12 13 15 15 15 15 15 14 13 12 11 11 10 9 8 6 4 3 4 6 7 9 10 11 11 14 17 15 14 12 12 12 11 9 9 8 8 8
10 12 13 11 11 13 14 15 14 14 14 13 11 11 10 10 9 10 9 8 8 5 3 4 6 8 8 9 9 12 14 17 17 15 14 12 11 9 9 9 8 8 8
10 12 14 12 12 13 14 14 14 13 12 12 11 11 10 11 13 11 11 11 11 8 5 3 7 9 9 9 9 2 12 16 15 14 11 11 9 9 8 8 7 6 7
11 12 13 13 12 13 14 14 14 15 14 12 12 13 14 15 15 15 15 17 15 14 9 7 12 12 11 11 12 17 15 15 14 12 11 10 9 8 7 8 8 8 8
13 13 13 14 13 14 16 16 16 15 14 13 14 15 16 18 19 19 20 19 19 18 18 17 17 14 14 14 15 14 16 16 14 12 11 10 8 7 8 10 10 9 9
15 15 14 16 15 16 15 16 16 14 14 15 16 17 18 19 18 18 18 20 20 20 20 19 17 16 14 15 15 14 13 14 13 11 10 9 8 8 8 9 8 8 8
14 16 16 17 15 16 15 16 15 15 16 16 16 16 15 15 15 14 15 16 17 19 18 18 16 15 14 14 14 13 12 10 10 9 9 9 9 8 7 6 4 4 3
14 15 16 17 15 16 15 14 15 16 17 16 16 15 13 11 12 11 12 12 14 16 15 15 15 13 12 12 13 12 12 12 10 8 6 6 6 5 4 2 1 2 2
13 14 15 15 15 16 15 15 16 16 17 17 16 13 11 10 8 7 9 12 12 13 12 12 10 13 12 11 11 11 10 9 7 7 6 4 4 4 4 3 2 3 3
14 15 15 15 15 15 16 16 17 17 17 17 14 11 11 12 14 11 15 14 12 10 9 9 8 9 10 9 8 8 8 6 6 7 6 6 5 6 6 6 6 5 6
17 16 16 15 15 16 16 17 17 16 16 15 13 11 12 13 14 11 12 10 9 10 7 6 8 8 7 7 9 9 8 8 8 7 5 6 5 4 5 7 8 8 7
19 17 17 16 15 16 17 17 16 15 14 13 13 11 12 14 13 10 11 11 11 10 8 6 4 6 5 5 9 10 8 9 9 10 8 8 9 9 9 11 9 8 9
20 19 18 18 18 17 18 18 17 16 14 14 16 13 11 14 14 12 11 12 10 10 8 8 6 4 5 6 9 10 10 11 9 9 9 11 11 12 13 11 11 11 11
20 20 19 19 19 19 19 19 19 17 14 14 15 12 11 11 12 12 10 11 11 11 9 9 8 8 9 8 9 10 10 11 11 10 9 11 12 12 15 15 14 12 11
23 23 21 20 21 20 19 18 19 16 15 15 14 12 12 13 12 12 11 13 11 15 14 13 13 14 13 11 12 11 10 12 11 12 12 12 11 11 13 13 14 14 15
23 24 22 22 21 21 19 19 17 16 16 18 14 12 13 13 13 13 13 14 13 17 17 14 14 13 14 14 14 13 13 13 12 11 11 11 10 11 12 13 14 13 14
26 25 25 25 23 20 17 16 15 16 17 18 14 12 13 15 15 15 15 17 17 18 20 18 17 15 16 15 17 15 15 15 15 12 11 10 10 11 11 12 14 14 14
26 27 27 28 26 21 16 14 14 15 16 16 13 12 12 15 17 16 17 18 19 20 20 19 19 17 17 15 17 15 14 15 14 13 11 11 10 11 14 16 17 15 15
28 27 27 27 26 23 18 18 17 17 16 16 13 11 11 14 16 16 15 18 19 21 20 19 18 18 15 14 17 15 14 13 12 13 13 14 14 14 16 15 13 14 14
28 29 27 28 26 25 23 22 18 17 17 17 14 12 11 13 15 13 13 13 16 17 17 16 17 17 14 13 12 12 11 12 13 15 15 15 15 15 15 13 13 14 15
30 29 29 28 28 26 24 21 18 16 17 17 15 13 11 11 12 12 12 11 12 13 13 13 14 15 15 13 11 9 9 9 9 10 12 14 13 13 12 13 13 14 13
32 32 32 32 30 28 24 22 21 22 23 22 17 14 12 11 11 10 10 11 9 9 10 11 12 13 13 13 12 10 10 10 9 10 11 10 10 10 10 10 10 9 9
36 34 34 35 33 29 24 24 23 21 19 18 16 13 12 11 10 9 8 9 8 8 9 10 11 10 12 14 13 12 11 11 10 10 11 12 13 12 13 12 11 10 10
38 39 37 36 35 31 28 27 24 21 20 19 17 14 12 11 11 9 8 8 8 8 8 10 10 9 12 13 13 13 13 13 13 13 13 13 13 12 12 13 13 12 12
Wind_Direction
108 112 102 101 100 101 103 107 100 100 99 93 86 82 79 78 77 78 76 80 83 87 91 94 93 94 95 106 135 145 135 127 121 114 109 109 104 102 106 108 96 85 78
114 109 103 105 104 102 108 111 103 104 102 94 85 80 75 76 73 72 71 69 70 74 98 102 100 96 96 103 111 132 132 131 125 116 111 112 109 100 97 97 97 90 86
112 112 104 107 105 106 113 107 102 101 95 89 82 76 75 75 76 72 66 62 65 75 94 107 105 104 101 100 107 120 129 131 126 119 118 122 115 107 111 106 98 94 89
111 115 111 112 113 114 116 112 108 107 106 101 100 92 88 80 80 76 63 56 52 41 34 90 112 108 101 99 101 119 129 134 131 128 121 117 105 106 108 102 96 91 87
109 118 119 117 118 115 115 115 115 117 114 108 102 97 86 85 76 68 54 45 39 32 25 110 135 127 107 98 95 197 127 134 133 131 116 107 104 103 95 90 90 94 90
115 121 120 118 115 119 122 126 126 120 115 110 100 94 90 87 84 79 62 54 55 48 45 103 135 129 116 105 98 112 132 131 130 126 116 111 111 108 96 87 83 90 93
125 125 128 126 128 133 128 127 121 115 108 103 101 97 94 94 86 75 69 68 63 58 66 93 114 118 116 110 100 107 122 128 127 125 124 118 113 104 94 88 80 90 91
133 135 139 137 138 131 127 122 114 108 107 105 102 102 101 94 87 78 72 72 67 66 72 91 105 114 115 113 109 109 117 123 123 128 126 120 117 114 108 99 89 79 87
141 143 148 140 138 126 123 117 113 110 110 106 105 105 100 97 90 80 74 73 73 72 72 90 100 108 116 116 120 119 119 124 122 119 118 122 122 120 112 102 90 65 101
145 149 149 141 135 125 122 120 116 115 112 109 108 103 98 92 90 87 81 81 81 79 78 78 92 101 103 109 111 113 120 119 119 118 118 127 135 138 128 106 106 84 121
144 149 151 143 137 127 128 127 122 119 114 110 108 102 92 78 79 71 85 89 84 76 84 87 82 87 97 106 110 114 117 115 119 116 118 140 163 147 101 104 113 135 142
146 152 155 149 141 135 133 129 125 123 117 111 108 95 93 74 79 78 96 92 81 87 81 90 89 86 89 92 105 106 101 101 103 104 86 86 103 104 103 103 114 116 111
149 157 158 155 149 143 137 133 129 124 117 113 111 102 83 79 76 80 79 87 90 88 90 80 84 83 88 90 89 86 89 90 98 106 101 92 81 66 83 100 107 116 109
154 159 158 158 155 148 142 138 133 126 120 112 117 106 88 73 63 73 85 82 82 81 81 90 74 88 90 90 95 94 97 93 94 99 102 93 85 75 80 80 97 91 85
156 160 161 161 161 153 149 142 137 131 125 121 114 109 90 73 61 77 85 80 70 48 38 69 88 123 131 107 102 110 103 99 94 92 86 83 82 81 83 94 95 94 91
160 162 166 165 164 158 153 149 141 136 131 125 116 102 85 79 74 89 88 77 67 62 56 60 86 129 133 119 100 110 107 99 92 88 84 81 80 91 92 92 91 93 88
166 167 167 169 170 163 163 156 149 140 138 130 118 101 87 84 90 95 92 79 66 72 74 78 93 101 111 99 91 102 102 96 93 96 94 84 85 85 89 95 96 92 86
170 168 168 169 170 168 166 160 148 139 136 131 121 111 97 92 97 102 95 88 85 80 85 87 91 95 100 95 94 89 86 85 87 90 96 95 92 98 94 95 90 86 86
174 171 173 169 172 172 174 164 151 142 145 136 127 113 108 105 102 102 94 90 86 81 80 85 96 100 100 99 103 102 95 88 87 89 81 86 100 93 93 91 79 76 79
176 178 179 175 173 172 173 167 157 153 153 144 135 119 110 109 102 103 95 91 89 87 84 84 86 92 96 97 99 98 100 98 97 94 84 84 87 89 88 85 82 80 79
178 181 180 179 173 168 173 171 168 163 166 152 145 129 118 113 112 100 101 101 92 88 89 88 91 89 92 94 98 102 105 105 105 102 99 98 97 97 102 99 91 90 84
181 182 179 179 176 175 176 178 175 169 170 159 161 141 130 119 114 114 104 101 96 89 89 89 95 98 100 99 94 101 108 112 111 113 111 108 111 116 111 93 82 70 58
188 185 184 183 183 179 181 180 174 169 174 172 173 150 143 133 122 118 111 102 97 95 96 93 101 105 109 113 111 113 114 109 104 104 102 104 104 97 93 83 66 54 48
194 191 188 185 186 188 187 181 178 177 181 178 174 164 157 152 132 118 105 101 106 110 104 95 100 113 113 117 120 127 126 125 127 124 124 120 113 106 96 88 82 79 74
198 195 193 190 189 191 190 186 188 185 181 180 179 175 170 164 145 135 129 123 116 109 97 101 102 112 114 118 126 124 126 131 135 131 127 128 126 123 117 105 95 80 68
199 197 197 195 193 192 186 192 192 192 182 183 186 185 184 174 153 143 149 148 131 118 118 105 104 106 112 115 115 114 114 120 128 132 128 120 117 114 98 86 81 70 50
Height
5901 5901 5903 5903 5903 5903 5903 5904 5904 5904 5905 5906 5906 5906 5907 5908 5908 5907 5907 5908 5907 5907 5908 5908 5909 5909 5908 5908 5908 5908 5909 5910 5911 5912 5912 5913 5914 5915 5916 5918 5918 5918 5918
5901 5903 5905 5905 5905 5905 5905 5906 5906 5907 5908 5908 5908 5908 5909 5909 5909 5908 5908 5908 5907 5907 5908 5908 5908 5908 5908 5909 5909 5910 5911 5912 5913 5914 5914 5916 5917 5917 5919 5919 5920 5920 5919
5901 5904 5905 5907 5906 5906 5908 5907 5908 5909 5909 5910 5910 5910 5911 5911 5910 5910 5910 5909 5908 5908 5907 5907 5908 5909 5909 5909 5909 5910 5911 5912 5914 5916 5917 5918 5919 5920 5921 5921 5920 5920 5920
5903 5904 5906 5908 5909 5909 5910 5910 5911 5912 5912 5913 5913 5914 5913 5913 5911 5912 5911 5910 5909 5907 5906 5907 5908 5909 5910 5910 5911 5912 5913 5914 5916 5917 5919 5921 5921 5922 5921 5921 5921 5921 5921
5904 5906 5907 5910 5911 5911 5912 5912 5913 5914 5915 5916 5916 5915 5915 5914 5913 5913 5913 5911 5909 5907 5906 5906 5907 5909 5911 5912 5913 5912 5915 5916 5918 5920 5921 5922 5923 5923 5923 5923 5922 5922 5922
5905 5907 5909 5910 5912 5912 5913 5915 5916 5917 5918 5918 5918 5917 5917 5916 5915 5915 5914 5912 5911 5909 5907 5906 5907 5910 5912 5914 5915 5915 5917 5919 5920 5922 5923 5924 5924 5925 5925 5924 5924 5923 5923
5907 5909 5910 5912 5914 5915 5916 5917 5918 5918 5918 5919 5919 5918 5918 5918 5918 5917 5916 5915 5913 5911 5909 5909 5910 5913 5915 5916 5917 5918 5919 5921 5922 5923 5924 5925 5925 5925 5925 5925 5925 5924 5925
5907 5910 5912 5914 5916 5917 5918 5918 5919 5919 5920 5920 5921 5920 5920 5921 5920 5920 5919 5918 5917 5916 5914 5913 5914 5915 5917 5917 5918 5920 5922 5923 5923 5924 5924 5925 5926 5926 5926 5925 5926 5926 5926
5909 5911 5913 5915 5917 5917 5919 5919 5920 5921 5922 5923 5923 5923 5923 5922 5923 5922 5922 5921 5920 5919 5918 5918 5917 5918 5917 5919 5920 5921 5923 5925 5925 5925 5925 5925 5926 5926 5926 5927 5927 5926 5926
5910 5912 5914 5915 5917 5918 5919 5920 5921 5922 5923 5925 5925 5925 5925 5924 5924 5924 5924 5923 5922 5921 5921 5922 5921 5920 5922 5922 5923 5924 5925 5926 5926 5926 5926 5926 5927 5926 5926 5926 5926 5926 5926
5912 5913 5915 5916 5918 5920 5920 5922 5923 5924 5925 5926 5927 5927 5927 5926 5926 5925 5925 5924 5923 5924 5923 5924 5924 5925 5926 5925 5925 5925 5927 5927 5927 5927 5927 5927 5926 5926 5926 5926 5926 5926 5925
5912 5914 5916 5918 5919 5921 5922 5924 5925 5926 5926 5928 5929 5929 5929 5928 5927 5926 5926 5925 5925 5925 5924 5924 5926 5926 5926 5926 5927 5928 5928 5927 5927 5928 5928 5929 5928 5928 5927 5927 5927 5927 5927
5913 5915 5917 5919 5921 5922 5924 5925 5927 5928 5929 5931 5931 5931 5931 5931 5929 5928 5927 5927 5926 5926 5925 5926 5928 5928 5927 5928 5929 5930 5929 5929 5930 5929 5929 5930 5929 5929 5928 5928 5928 5928 5928
5912 5916 5918 5920 5922 5923 5925 5928 5929 5931 5932 5933 5934 5933 5933 5932 5931 5930 5928 5928 5927 5928 5928 5928 5929 5930 5930 5930 5932 5932 5931 5931 5932 5931 5931 5931 5931 5930 5930 5931 5930 5930 5930
5913 5916 5918 5921 5923 5925 5927 5929 5931 5933 5934 5934 5935 5935 5935 5935 5933 5932 5931 5932 5929 5928 5928 5928 5930 5930 5930 5932 5933 5933 5933 5934 5934 5933 5934 5934 5934 5933 5933 5933 5932 5931 5932
5913 5916 5918 5921 5924 5926 5929 5930 5932 5934 5935 5936 5937 5936 5937 5936 5935 5935 5933 5934 5932 5931 5930 5929 5930 5931 5931 5933 5934 5933 5934 5935 5935 5936 5936 5936 5936 5935 5936 5935 5934 5934 5934
5911 5915 5918 5922 5925 5927 5930 5932 5933 5935 5936 5938 5939 5938 5939 5938 5937 5937 5936 5936 5935 5934 5933 5933 5933 5933 5934 5935 5936 5935 5935 5936 5936 5937 5937 5938 5939 5939 5939 5938 5937 5937 5937
5912 5914 5917 5921 5925 5928 5931 5933 5934 5936 5938 5939 5941 5941 5940 5940 5940 5940 5939 5939 5939 5937 5936 5937 5936 5936 5937 5937 5938 5938 5938 5939 5939 5940 5940 5940 5941 5941 5942 5941 5940 5940 5939
5910 5914 5917 5921 5925 5928 5932 5934 5935 5937 5939 5940 5942 5943 5943 5942 5942 5943 5943 5943 5943 5941 5940 5940 5939 5939 5939 5940 5941 5940 5941 5941 5942 5943 5943 5944 5944 5944 5944 5943 5943 5942 5942
5910 5913 5916 5919 5923 5928 5932 5935 5937 5938 5940 5941 5943 5945 5945 5944 5944 5945 5945 5946 5945 5944 5944 5944 5943 5943 5943 5943 5942 5943 5943 5943 5944 5946 5946 5946 5947 5946 5946 5946 5946 5946 5945
5909 5913 5917 5920 5923 5927 5931 5935 5937 5938 5940 5942 5944 5945 5946 5946 5946 5946 5947 5948 5947 5947 5947 5947 5947 5946 5946 5946 5945 5945 5946 5946 5947 5947 5947 5947 5947 5948 5948 5948 5948 5948 5947
5908 5911 5916 5920 5923 5925 5928 5932 5936 5938 5941 5943 5945 5946 5948 5948 5947 5947 5948 5948 5948 5949 5950 5950 5949 5948 5949 5949 5948 5948 5949 5949 5949 5949 5949 5949 5949 5949 5949 5950 5949 5949 5949
5907 5911 5914 5918 5922 5924 5926 5930 5934 5939 5941 5942 5944 5945 5948 5949 5948 5948 5949 5950 5950 5951 5951 5952 5951 5951 5951 5951 5951 5952 5951 5951 5951 5951 5950 5950 5950 5951 5951 5951 5951 5951 5951
5905 5907 5911 5915 5919 5923 5925 5930 5933 5936 5939 5941 5943 5944 5947 5948 5949 5949 5950 5951 5952 5952 5953 5953 5953 5953 5952 5952 5953 5954 5954 5954 5953 5953 5953 5952 5953 5953 5954 5955 5954 5954 5954
5900 5905 5908 5912 5916 5920 5925 5928 5931 5934 5939 5942 5943 5944 5946 5947 5948 5949 5951 5951 5952 5953 5953 5955 5954 5954 5954 5954 5955 5956 5956 5955 5954 5954 5954 5955 5955 5956 5956 5956 5956 5956 5955
5894 5899 5904 5909 5913 5918 5923 5927 5930 5933 5937 5940 5942 5944 5946 5948 5948 5949 5951 5951 5952 5953 5954 5955 5955 5954 5955 5955 5956 5956 5956 5956 5956 5956 5957 5958 5958 5958 5958 5959 5959 5958 5957